Weather History for Van, Turkey

Change the Weather History Date:

Wednesday, February 6, 2013

  Actual Average Record
Temperature  
Mean Temperature 28 °F -  
Max Temperature 41 °F 38 °F 48 °F (1998)
Min Temperature 18 °F 20 °F 6 °F (2012)
Degree Days  
Heating Degree Days 36    
Moisture  
Dew Point 25 °F    
Average Humidity 78    
Maximum Humidity 100    
Minimum Humidity 58    
Precipitation  
Precipitation 0.00 in 0.05 in - ()
Sea Level Pressure  
Sea Level Pressure 30.12 in    
Wind  
Wind Speed 5 mph ()    
Max Wind Speed 17 mph    
Max Gust Speed -    
Visibility 4.1 miles    
Events      
Averages and records for this station are not official NWS values.
T = Trace of Precipitation, MM = Missing Value Source: Averaged Metar Reports

Daily Weather History Graph

Daily Weather History Graph

Search for Another Location

Airport:

Trip Planner

Search our weather history database for the weather conditions in past years. The results will help you decide how hot, cold, wet, or windy it might be!

Date:

Astronomy

Feb. 06, 2013 Rise Set
Actual Time 6:07 AM EET 4:34 PM EET
Civil Twilight 5:39 AM EET 5:02 PM EET
Nautical Twilight 5:08 AM EET 5:33 PM EET
Astronomical Twilight 4:37 AM EET 6:04 PM EET
Moon 2:27 AM EET (2/6) 12:31 PM EET (2/6)
Length of Visible Light 11h 22m
Length of Day
10h 27m
Waning Crescent, 20% of the Moon is Illuminated
Feb 6
Waning Crescent
Feb 10
New
Feb 17
First Quarter
Feb 25
Full
Mar 4
Last Quarter

Hourly Weather History & Observations

Time (EET) Temp. Windchill Dew Point Humidity Pressure Visibility Wind Dir Wind Speed Gust Speed Precip Events Conditions
12:50 AM 21.2 °F - 19.4 °F 93% 30.21 in 4.3 mi Variable 2.3 mph - N/A   Unknown
1:50 AM 23.0 °F 17.0 °F 21.2 °F 93% 30.21 in 4.3 mi East 4.6 mph - N/A   Scattered Clouds
2:00 AM 22 °F - 20 °F 90%  in 4 mi East 4.6 mph - -   Scattered Clouds
2:50 AM 23.0 °F 18.4 °F 21.2 °F 93% 30.18 in 4.3 mi ESE 3.5 mph - N/A   Scattered Clouds
3:50 AM 23.0 °F - 21.2 °F 93% 30.18 in 5.0 mi Variable 2.3 mph - N/A   Scattered Clouds
4:50 AM 21.2 °F 14.9 °F 19.4 °F 93% 30.18 in 5.0 mi East 4.6 mph - N/A   Scattered Clouds
5:50 AM 21.2 °F 14.9 °F 21.2 °F 100% 30.18 in 5.0 mi ENE 4.6 mph - N/A   Scattered Clouds
6:50 AM 23.0 °F - 21.2 °F 93% 30.21 in 2.5 mi Variable 2.3 mph - N/A   Mostly Cloudy
7:50 AM 26.6 °F 21.2 °F 23.0 °F 86% 30.21 in 2.2 mi ENE 4.6 mph - N/A   Mostly Cloudy
8:00 AM 26 °F - 23 °F 83%  in 2 mi ENE 4.6 mph - -   Mist
8:50 AM 32.0 °F - 24.8 °F 75% 30.21 in 1.6 mi North 2.3 mph - N/A   Mostly Cloudy
9:50 AM 33.8 °F 29.6 °F 26.6 °F 75% 30.18 in 3.7 mi NNW 4.6 mph - N/A   Mostly Cloudy
10:50 AM 35.6 °F 31.7 °F 26.6 °F 70% 30.15 in 3.7 mi West 4.6 mph - N/A   Mostly Cloudy
11:50 AM 35.6 °F 30.7 °F 26.6 °F 70% 30.12 in 4.3 mi WNW 5.8 mph - N/A   Mostly Cloudy
12:50 PM 35.6 °F 31.7 °F 24.8 °F 65% 30.09 in 5.0 mi SW 4.6 mph - N/A   Mostly Cloudy
1:50 PM 33.8 °F 28.6 °F 26.6 °F 75% 30.09 in 5.0 mi WSW 5.8 mph - N/A   Mostly Cloudy
2:00 PM 35 °F - 26 °F 59%  in 5 mi WSW 5.8 mph - -   Mist
2:50 PM 33.8 °F 25.8 °F 24.8 °F 70% 30.12 in 5.0 mi WSW 10.4 mph - N/A   Mostly Cloudy
3:50 PM 33.8 °F 29.6 °F 23.0 °F 65% 30.12 in 5.0 mi NNE 4.6 mph - N/A   Mostly Cloudy
4:50 PM 33.8 °F 30.8 °F 26.6 °F 75% 30.09 in 3.7 mi NNE 3.5 mph - N/A   Mostly Cloudy
5:50 PM 33.8 °F 29.6 °F 26.6 °F 75% 30.09 in 3.7 mi WNW 4.6 mph - N/A   Mostly Cloudy
6:50 PM 33.8 °F 29.6 °F 26.6 °F 75% 30.06 in 3.7 mi NNE 4.6 mph - N/A   Mostly Cloudy
7:50 PM 39.2 °F 30.2 °F 30.2 °F 70% 30.01 in 4.3 mi SSE 17.3 mph - N/A   Overcast
8:00 PM 39 °F - 29 °F 58%  in 4 mi SSE 17.3 mph - -   Light Ice Pellets
8:50 PM 39.2 °F 32.5 °F 30.2 °F 70% 30.01 in 4.3 mi SSW 10.4 mph - N/A   Overcast
9:50 PM 37.4 °F 32.1 °F 30.2 °F 75% 29.98 in 4.3 mi SSE 6.9 mph - N/A   Mostly Cloudy
10:50 PM 39.2 °F 35.9 °F 30.2 °F 70% 29.98 in 4.3 mi ESE 4.6 mph - N/A   Mostly Cloudy
11:50 PM 41.0 °F 33.9 °F 28.4 °F 61% 29.98 in 4.3 mi South 12.7 mph - N/A   Mostly Cloudy